Date/Time (UTC),ProbHail,ProbWind,ProbTor,MESH,VIL Density,Flash Rate,Max Flash Density,LJA sigma-level,Max 0-2km AzShear,LLAZ 98th%,MLAZ 98th%,MUCAPE,MLCAPE,CAPE -10C to -30C,MLCIN,SRH 0-1km AGL,EBShear,MeanWind 0-1km AGL,Norm. Sat. Growth Rate,PWAT,WBZ,AvgBeamHgt,size
2019/12/16 16:22,3,32,42,0.16,1.5,0,0.01,0.0,12,11,4,2587,2032,743,999,309,45.8,39.2,0,1.4,10.4,2.8,60
2019/12/16 16:24,3,32,45,0.16,1.5,0,0.02,0.0,13,11,4,2586,2031,745,999,307,45.8,39.2,0,1.4,10.4,2.8,67
2019/12/16 16:26,3,32,45,0.16,1.5,0,0.02,0.0,13,11,4,2582,2028,747,999,306,45.8,39.2,0,1.4,10.4,2.8,56
2019/12/16 16:28,3,28,45,0.19,1.4,4,0.17,0.0,13,11,4,2576,2023,747,999,302,46.0,39.2,0,1.4,10.4,2.8,205
2019/12/16 16:30,4,35,31,0.22,1.5,5,0.17,0.0,12,9,5,2571,2020,747,999,300,46.0,39.2,0,1.4,10.3,2.7,202
2019/12/16 16:32,5,46,30,0.22,1.5,12,0.27,0.0,9,8,5,2570,2020,746,999,300,46.0,39.2,0,1.4,10.4,2.7,219
2019/12/16 16:34,5,57,55,0.22,1.5,16,0.39,1.3,18,10,5,2563,2017,746,999,297,46.0,39.2,0,1.4,10.3,2.6,221
2019/12/16 16:36,11,63,59,0.24,1.4,33,0.64,5.9,15,10,5,2561,2016,746,999,296,46.1,39.2,0,1.4,10.3,2.6,254
2019/12/16 16:38,13,55,59,0.3,1.4,33,0.64,0.0,15,10,4,2558,2015,745,999,294,46.1,39.2,0,1.4,10.3,2.6,214
2019/12/16 16:40,13,55,51,0.3,1.4,33,0.64,0.0,15,10,4,2555,2014,745,999,292,46.1,39.2,0,1.4,10.3,2.5,236
2019/12/16 16:42,13,63,38,0.3,1.4,33,0.64,0.6,11,10,4,2554,2015,745,999,290,46.2,39.3,0,1.4,10.2,2.5,256
2019/12/16 16:44,10,63,38,0.3,1.5,26,0.64,0.0,12,9,5,2555,2015,745,999,289,46.3,39.3,0,1.4,10.2,2.4,256
2019/12/16 16:46,11,63,30,0.23,1.6,31,0.64,1.0,11,8,6,2553,2016,745,999,286,46.4,39.3,0,1.4,10.2,2.2,262
2019/12/16 16:48,13,62,30,0.28,1.6,32,0.64,0.1,11,8,6,2554,2016,745,999,286,46.4,39.3,0,1.4,10.2,2.2,256
2019/12/16 16:50,21,73,46,0.28,1.6,46,0.71,2.9,13,9,6,2554,2017,745,999,285,46.5,39.4,0,1.4,10.2,2.1,274
2019/12/16 16:52,27,69,67,0.28,1.6,46,0.71,0.0,16,9,7,2937,2400,870,999,285,48.1,41.0,0,1.5,10.2,2.0,282
2019/12/16 16:54,33,73,66,0.31,1.5,46,0.71,0.0,16,9,7,2929,2400,869,999,283,48.1,41.0,0,1.5,10.2,1.9,300
2019/12/16 16:56,33,80,66,0.31,1.8,46,0.71,0.2,12,9,6,2928,2400,870,999,282,48.1,40.9,0,1.5,10.2,1.8,300
2019/12/16 16:58,29,70,73,0.37,1.8,33,0.71,0.0,17,10,6,2918,2398,869,999,279,48.1,40.8,0,1.5,10.1,1.7,296
2019/12/16 17:00,58,80,77,0.71,1.8,32,0.71,0.0,17,10,8,2908,2394,869,999,277,48.1,40.7,0,1.5,10.1,1.6,305
2019/12/16 17:02,82,91,77,1.13,2.3,32,0.71,0.5,17,10,8,2901,2391,868,999,276,48.1,40.7,0,1.5,10.1,1.6,308
2019/12/16 17:04,88,94,72,1.13,2.3,45,0.71,6.0,15,10,7,2890,2385,866,999,274,48.1,40.6,0,1.5,10.1,1.5,296
2019/12/16 17:06,88,91,79,1.13,2.3,45,0.71,0.0,15,11,9,2883,2381,866,999,273,48.1,40.6,0,1.5,10.1,1.4,302
2019/12/16 17:08,88,94,84,1.11,2.5,45,0.71,0.3,15,11,10,2875,2375,864,999,273,48.1,40.5,0,1.5,10.1,1.3,327
2019/12/16 17:10,82,97,89,0.97,2.5,45,0.71,0.5,19,11,9,2868,2375,864,999,272,48.1,40.5,0,1.5,10.1,1.2,326
2019/12/16 17:12,79,92,91,0.97,2.5,37,0.71,0.0,19,11,12,2848,2363,862,999,272,48.2,40.4,0,1.5,10.1,1.1,394
2019/12/16 17:14,79,92,91,0.97,2.3,37,0.71,0.0,18,12,12,2837,2356,860,999,272,48.2,40.4,0,1.5,10.0,1.0,409
2019/12/16 17:16,89,97,91,1.24,2.7,37,0.76,0.0,26,17,15,2851,2368,863,999,272,48.1,40.4,0,1.5,10.0,1.1,205
2019/12/16 17:18,87,97,91,1.24,2.7,36,0.76,0.0,26,17,19,2838,2362,863,999,271,48.1,40.3,0,1.5,10.0,1.0,211
2019/12/16 17:20,87,97,91,1.24,2.7,34,0.76,0.0,26,17,18,2823,2352,861,999,272,48.2,40.3,0,1.5,10.0,1.0,232
2019/12/16 17:22,89,97,91,1.15,2.3,42,0.76,8.3,26,15,17,2804,2341,858,999,272,48.2,40.3,0,1.5,10.0,0.9,259
2019/12/16 17:24,88,91,91,1.11,2.0,42,0.76,0.0,24,16,17,2780,2327,856,999,273,48.2,40.3,0,1.5,10.0,0.8,259
2019/12/16 17:26,88,97,91,1.11,2.1,42,0.76,0.2,24,16,13,2765,2316,855,999,273,48.3,40.2,0,1.5,10.0,0.7,268
2019/12/16 17:28,80,97,91,0.95,2.1,42,0.76,0.0,24,16,14,2756,2309,854,999,274,48.3,40.2,0,1.5,10.0,0.6,275
2019/12/16 17:30,74,92,91,0.96,2.1,32,0.76,0.2,17,14,14,2746,2302,853,999,274,48.4,40.1,0,1.5,10.0,0.6,268
2019/12/16 17:32,74,92,91,0.96,2.1,32,0.76,0.0,23,14,14,2734,2293,852,999,275,48.5,40.1,0,1.5,10.0,0.5,272
2019/12/16 17:34,76,92,91,0.96,2.1,30,0.76,0.0,23,14,17,2724,2284,850,999,275,48.7,40.1,0,1.5,10.0,0.4,278
2019/12/16 17:36,59,89,91,0.72,2.1,30,0.76,0.7,23,14,17,2726,2284,851,999,274,48.7,40.1,0,1.5,10.0,0.4,258
2019/12/16 17:38,45,78,91,0.78,2.1,17,0.76,0.0,20,17,17,2723,2281,850,999,275,48.8,40.1,0,1.5,10.0,0.4,259
2019/12/16 17:40,40,78,91,0.8,2.2,17,0.76,0.0,20,17,14,2713,2270,847,999,274,49.0,40.0,0,1.5,10.0,0.3,271
2019/12/16 17:42,36,81,91,0.8,2.2,17,0.76,0.0,20,17,14,2708,2264,846,999,274,49.0,40.0,0,1.6,10.0,0.3,289
2019/12/16 17:44,32,76,91,0.8,2.2,9,0.76,0.0,20,16,15,2708,2262,845,999,274,49.1,40.0,0,1.6,10.0,0.2,270
2019/12/16 17:46,30,73,91,0.78,2.1,9,0.76,0.0,20,16,14,2704,2255,843,999,274,49.2,40.0,0,1.6,10.0,0.2,266
2019/12/16 17:48,30,73,91,0.77,2.0,9,0.56,0.0,20,16,12,2701,2248,841,999,274,49.3,40.0,0,1.6,10.0,0.2,284
2019/12/16 17:50,32,69,91,0.78,2.0,9,0.53,0.0,23,14,10,2701,2244,840,999,273,49.4,40.0,0,1.6,10.0,0.2,288
2019/12/16 17:52,44,76,91,0.92,2.1,12,0.53,1.0,22,15,10,2700,2242,840,999,273,49.4,40.1,0,1.6,10.0,0.2,306
2019/12/16 17:54,44,80,86,0.92,2.4,15,0.51,0.8,22,15,8,2701,2238,838,999,272,49.5,40.0,0,1.6,10.0,0.2,299
2019/12/16 17:56,39,80,89,0.92,2.4,15,0.51,0.0,22,15,9,2739,2299,832,0,280,50.7,43.5,0,1.7,10.0,0.1,269
2019/12/16 17:58,39,78,86,0.92,2.4,15,0.51,0.0,19,13,9,2733,2294,830,0,280,50.7,43.5,0,1.7,10.0,0.1,272
2019/12/16 18:00,33,73,92,0.83,2.0,15,0.51,0.0,19,13,12,2735,2294,829,0,280,50.8,43.5,0,1.7,10.0,0.1,258
2019/12/16 18:02,26,69,91,0.71,2.0,15,0.46,2.4,19,13,9,2730,2288,824,0,280,50.8,43.5,0,1.7,10.0,0.1,292
2019/12/16 18:04,31,72,91,0.71,2.0,18,0.46,1.1,16,13,12,2730,2290,826,0,280,50.9,43.4,0,1.7,10.0,0.1,230
2019/12/16 18:06,23,69,91,0.61,2.1,18,0.46,0.0,16,13,10,2725,2284,822,0,281,50.9,43.4,0,1.7,10.0,0.2,273
2019/12/16 18:08,20,67,91,0.55,2.1,18,0.45,0.3,16,13,9,2720,2276,819,1,281,51.1,43.3,0,1.7,10.0,0.2,277
2019/12/16 18:10,20,73,85,0.59,2.1,20,0.45,1.5,16,12,9,2720,2277,819,1,281,51.2,43.3,0,1.7,10.0,0.2,288
2019/12/16 18:12,34,91,91,0.59,2.3,34,0.45,2.9,16,11,23,2720,2273,815,1,281,51.3,43.2,0,1.7,10.0,0.2,346
2019/12/16 18:14,34,85,91,0.59,2.3,34,0.45,0.0,16,10,12,2717,2267,814,1,282,51.3,43.2,0,1.7,10.0,0.2,343
2019/12/16 18:16,34,89,86,0.59,2.3,35,0.48,1.2,16,9,12,2720,2267,812,1,282,51.5,43.2,0,1.7,10.0,0.3,353
2019/12/16 18:18,44,89,90,0.59,2.3,50,0.72,1.8,16,10,11,2725,2267,809,1,282,51.6,43.1,0,1.7,10.0,0.3,388
2019/12/16 18:20,44,85,90,0.59,2.2,50,0.72,0.0,16,10,11,2723,2264,806,1,283,51.7,43.0,0,1.7,10.0,0.4,373
2019/12/16 18:22,58,93,90,0.72,2.3,50,0.72,1.5,13,10,11,2720,2259,804,1,283,51.8,43.0,0,1.7,10.0,0.4,360
2019/12/16 18:24,61,95,88,0.72,2.3,54,0.8,0.3,14,11,11,2723,2258,800,1,285,51.9,42.9,0,1.7,10.1,0.5,375
2019/12/16 18:26,61,95,88,0.72,2.4,54,0.8,0.0,14,11,12,2730,2260,800,1,285,52.0,42.9,0,1.7,10.1,0.6,380
2019/12/16 18:28,57,95,92,0.7,2.4,54,0.8,0.0,14,11,13,2745,2263,798,1,286,52.1,42.8,0,1.7,10.1,0.6,361
2019/12/16 18:30,57,95,93,0.7,2.4,54,0.8,0.0,19,12,13,2757,2263,797,1,287,52.2,42.8,0,1.7,10.1,0.7,363
2019/12/16 18:32,44,85,93,0.76,2.1,30,0.8,0.0,19,13,12,2752,2257,797,1,288,52.2,42.8,0,1.7,10.1,0.8,409
2019/12/16 18:34,56,92,93,0.78,2.1,46,0.8,1.8,19,13,12,2752,2255,797,1,288,52.2,42.7,0,1.7,10.1,0.8,402
2019/12/16 18:36,56,88,93,0.8,2.1,46,0.8,0.0,19,13,11,2774,2266,796,1,289,52.3,42.7,0,1.7,10.1,0.9,452
2019/12/16 18:38,70,94,93,0.98,2.4,46,0.8,0.0,19,13,12,2774,2271,795,1,290,52.3,42.7,0,1.7,10.1,1.0,464
2019/12/16 18:40,73,97,93,1.0,2.5,46,0.8,0.3,28,13,11,2772,2270,796,1,290,52.3,42.7,0,1.7,10.1,1.0,457
2019/12/16 18:42,68,94,93,1.0,2.5,38,0.8,0.0,28,13,12,2781,2275,795,1,290,52.3,42.6,0,1.7,10.2,1.1,384
2019/12/16 18:44,74,97,93,1.0,2.5,53,0.8,2.1,28,13,11,2771,2274,793,1,290,52.2,42.6,0,1.7,10.2,1.2,418
2019/12/16 18:46,67,94,93,0.98,2.5,53,0.8,0.0,26,18,10,2768,2272,791,0,290,52.3,42.6,0,1.7,10.2,1.3,352
2019/12/16 18:48,56,95,93,0.83,2.0,53,0.8,0.6,26,18,10,2768,2272,788,0,290,52.2,42.6,0,1.7,10.3,1.4,391
2019/12/16 18:50,56,95,91,0.83,2.0,53,0.8,0.0,26,18,9,2739,2258,784,0,291,51.9,42.6,0,1.7,10.3,1.7,532
2019/12/16 18:52,47,92,91,0.83,2.4,38,0.8,0.1,25,12,8,2720,2253,783,0,290,51.9,42.6,0,1.7,10.4,1.8,563
2019/12/16 18:54,22,89,80,0.54,2.4,38,0.8,0.0,19,8,8,2709,2254,783,0,290,51.8,42.5,0,1.7,10.4,1.8,530
2019/12/16 18:56,18,80,73,0.61,2.4,24,0.69,0.6,19,8,8,2690,2245,782,0,290,51.8,42.5,0,1.7,10.4,1.9,556
2019/12/16 18:58,12,86,73,0.61,2.7,24,0.69,0.0,19,8,8,2557,2258,754,1,283,50.6,43.1,0,1.8,11.0,2.1,465
2019/12/16 19:00,11,86,73,0.61,2.7,22,0.69,0.2,19,8,6,2529,2245,748,1,283,50.7,43.0,0,1.8,11.0,2.3,410
2019/12/16 19:02,9,86,72,0.59,2.7,22,0.69,0.6,19,8,6,2512,2239,746,1,282,50.7,42.9,0,1.8,11.0,2.3,412
2019/12/16 19:04,6,64,61,0.5,2.4,19,0.69,0.1,19,8,6,2476,2223,736,1,282,51.0,42.7,0,1.8,11.0,2.5,413
2019/12/16 19:06,7,73,29,0.5,2.4,25,0.69,1.2,10,6,7,2460,2216,732,1,282,51.1,42.6,0,1.8,11.0,2.6,382
2019/12/16 19:08,8,68,24,0.57,2.1,25,0.69,0.0,9,5,8,2445,2210,729,1,282,51.1,42.6,0,1.8,11.0,2.7,360
2019/12/16 19:10,12,75,24,0.57,2.1,34,0.69,3.6,9,5,7,2429,2201,723,1,285,51.4,42.4,0,1.8,11.0,2.8,375
2019/12/16 19:12,12,68,14,0.57,2.1,34,0.69,0.0,6,4,6,2412,2193,717,1,286,51.6,42.4,0,1.8,11.0,3.0,352
2019/12/16 19:14,12,78,23,0.57,2.1,34,0.69,0.0,9,6,6,2407,2191,716,1,286,51.6,42.4,0,1.8,11.0,3.0,360
2019/12/16 19:16,15,80,18,0.61,2.3,34,0.62,0.4,9,6,4,2396,2184,711,1,286,51.8,42.3,0,1.8,11.0,3.2,330
2019/12/16 19:18,15,78,22,0.79,2.3,24,0.62,0.0,9,7,6,2397,2175,707,1,288,51.9,42.2,0,1.8,11.1,3.3,344
2019/12/16 19:20,13,78,40,0.79,2.3,20,0.46,0.3,13,8,6,2392,2169,705,1,286,51.9,42.2,0,1.8,11.1,3.4,336
2019/12/16 19:22,17,80,40,0.8,2.4,23,0.46,0.6,13,8,6,2410,2154,702,1,289,52.0,42.2,0,1.8,11.1,3.6,343
2019/12/16 19:24,24,85,49,0.8,2.4,33,0.46,2.4,13,9,5,2427,2132,699,0,290,52.0,42.1,0,1.9,11.1,3.8,296
2019/12/16 19:26,24,85,46,0.8,2.7,36,0.46,0.6,13,9,5,2438,2123,697,0,289,52.0,42.1,0,1.9,11.1,4.0,355
2019/12/16 19:28,21,85,48,0.8,2.7,36,0.46,0.0,13,9,6,2463,2122,696,0,291,52.0,42.1,0,1.9,11.1,4.2,367
2019/12/16 19:30,28,92,50,0.8,2.7,46,0.61,3.2,13,9,4,2478,2118,695,0,291,52.0,42.1,0,1.9,11.1,4.3,354
2019/12/16 19:32,42,91,24,0.97,2.8,46,0.61,0.0,9,6,4,2486,2113,695,0,290,52.0,42.1,0,1.9,11.1,4.4,291
2019/12/16 19:34,42,91,24,1.0,2.8,46,0.61,0.0,8,6,4,2499,2118,695,0,291,52.0,42.1,0,1.9,11.1,4.5,311
2019/12/16 19:36,44,94,18,1.0,2.8,50,0.72,1.8,8,6,5,2528,2128,695,0,291,52.0,42.2,0,1.9,11.1,4.7,322
2019/12/16 19:38,44,91,16,1.0,3.0,50,0.72,0.0,8,6,5,2557,2142,695,0,291,52.1,42.2,0,1.9,11.1,4.9,341
2019/12/16 19:40,33,92,16,0.84,3.0,50,0.72,0.6,8,6,5,2571,2151,695,0,291,52.1,42.3,0,1.9,11.1,5.0,361
2019/12/16 19:42,33,92,18,0.84,3.0,50,0.8,0.0,8,6,5,2594,2165,695,0,291,52.2,42.3,0,1.9,11.1,5.2,342
2019/12/16 19:44,30,88,16,0.84,2.9,44,0.8,0.0,6,5,4,2603,2174,695,0,290,52.3,42.3,0,1.9,11.1,5.3,301
2019/12/16 19:46,19,81,11,0.65,2.4,44,0.8,0.3,6,5,4,2610,2178,696,0,289,52.3,42.4,0,1.9,11.1,5.5,304
2019/12/16 19:48,31,68,9,0.98,2.4,32,0.8,0.0,6,5,4,2607,2173,697,0,288,52.2,42.4,0,1.9,11.1,5.6,296
2019/12/16 19:50,18,62,7,0.98,2.7,15,0.8,0.4,5,4,4,2601,2163,699,0,284,52.2,42.4,0,1.9,11.1,5.8,273
2019/12/16 19:52,18,62,7,0.98,2.7,15,0.8,0.0,5,4,4,2589,2151,701,0,281,52.1,42.5,0,1.9,11.1,6.1,260
2019/12/16 19:54,12,54,6,0.9,2.7,15,0.8,0.0,5,4,4,2586,2146,702,0,279,52.1,42.5,0,1.9,11.1,6.2,246
2019/12/16 19:56,5,55,7,0.63,2.7,15,0.8,0.0,6,4,4,2566,2129,704,0,276,52.0,42.5,0,1.9,11.1,6.3,214
2019/12/16 19:58,5,50,8,0.6,2.7,8,0.8,0.0,6,4,4,2562,2118,705,0,273,52.3,42.7,0,1.9,11.1,6.7,386
2019/12/16 20:00,6,41,7,0.6,2.6,7,0.8,0.0,6,4,5,2014,1781,606,0,212,54.6,37.7,0,1.9,11.1,6.7,327
2019/12/16 20:02,4,40,12,0.54,2.1,7,0.8,0.0,8,5,5,2022,1782,606,0,212,54.6,37.7,0,1.9,11.1,6.7,284
2019/12/16 20:04,3,53,20,0.43,2.1,7,0.8,0.0,8,6,7,2014,1781,606,0,212,54.6,37.6,0,1.9,11.1,6.8,240
2019/12/16 20:06,2,52,20,0.4,2.1,6,0.8,0.0,8,6,7,2004,1779,606,0,213,54.7,37.6,0,1.9,11.1,7.0,218
2019/12/16 20:08,4,55,20,0.52,2.1,8,0.8,0.0,8,6,4,1987,1777,605,0,213,55.0,37.6,0,1.9,11.1,7.3,317
2019/12/16 20:10,5,63,20,0.52,2.0,13,0.8,1.8,8,6,4,1984,1776,604,0,213,55.1,37.6,0,1.9,11.1,7.3,279
2019/12/16 20:12,5,40,6,0.52,2.0,13,0.8,0.0,5,5,4,1986,1776,605,0,213,55.3,37.6,0,1.9,11.1,7.5,330
2019/12/16 20:14,4,39,5,0.48,2.0,13,0.45,0.0,5,4,3,1986,1775,605,0,213,55.5,37.6,0,1.9,11.1,7.6,311
2019/12/16 20:16,2,32,5,0.3,2.0,13,0.42,0.0,5,4,3,1989,1776,601,0,214,56.3,37.6,0,1.9,11.1,7.8,321
2019/12/16 20:18,2,21,4,0.3,2.0,10,0.42,0.0,4,3,3,1988,1768,604,0,213,56.5,37.6,0,1.9,11.1,7.9,290
2019/12/16 20:20,2,21,4,0.3,2.0,4,0.42,0.0,4,3,3,1990,1760,603,0,213,57.7,37.6,0,1.9,11.1,8.3,315
2019/12/16 20:22,1,21,4,0.19,1.9,4,0.42,0.0,4,3,3,1989,1754,601,0,213,58.4,37.6,0,1.9,11.1,8.5,288
2019/12/16 20:24,1,21,4,0.19,1.9,4,0.42,0.0,3,3,3,1989,1752,600,0,213,58.5,37.6,0,1.9,11.1,8.5,249
2019/12/16 20:26,1,3,4,0.14,1.4,2,0.42,0.0,3,3,3,1991,1744,599,0,214,59.4,37.6,0,1.9,11.1,8.9,271
2019/12/16 20:28,1,3,4,0.09,1.3,2,0.42,0.0,3,3,3,1989,1744,597,0,218,59.7,37.5,0,1.9,11.1,9.1,280
2019/12/16 20:30,1,3,4,0.09,1.3,2,0.42,0.0,3,3,3,1992,1739,598,0,217,59.8,37.5,0,1.9,11.1,9.1,212
2019/12/16 20:32,1,1,4,0.09,0.9,2,0.42,0.0,3,2,3,1993,1737,598,0,218,59.9,37.6,0,1.9,11.1,9.1,192
2019/12/16 20:34,1,1,4,0.05,0.7,1,0.42,0.0,4,4,4,1990,1724,599,0,222,60.2,37.6,0,1.9,11.1,9.1,126
2019/12/16 20:36,1,1,4,0.05,0.7,1,0.42,0.0,4,4,3,1984,1725,599,1,223,60.2,37.6,0,1.9,11.1,9.1,115
2019/12/16 20:38,1,1,4,0.0,0.6,1,0.42,0.0,4,4,3,1984,1730,598,1,223,60.2,37.6,0,1.9,11.1,9.2,127
